Time,TemperatureF,DewpointF,PressureIn,WindDirection,WindDirectionDegrees,WindSpeedMPH,WindSpeedGustMPH,Humidity,HourlyPrecipIn,Conditions,Clouds,dailyrainin,SoftwareType,DateUTC
2013-03-10 00:04:00,50.7,40.5,30.28,SE,135,0.0,0.0,68,0.00,,,0.00,WUHU216HW,2013-03-10 08:04:00,
2013-03-10 00:09:00,50.5,40.3,30.28,SE,135,0.0,0.0,68,0.00,,,0.00,WUHU216HW,2013-03-10 08:09:00,
2013-03-10 00:14:00,50.3,40.5,30.28,SE,135,0.0,0.0,69,0.00,,,0.00,WUHU216HW,2013-03-10 08:14:00,
2013-03-10 00:19:00,50.1,40.4,30.27,SE,135,0.0,0.0,69,0.00,,,0.00,WUHU216HW,2013-03-10 08:19:00,
2013-03-10 00:24:00,50.0,40.8,30.27,SE,135,0.0,0.0,70,0.00,,,0.00,WUHU216HW,2013-03-10 08:24:00,
2013-03-10 00:29:00,50.0,40.6,30.27,SE,135,0.0,0.0,70,0.00,,,0.00,WUHU216HW,2013-03-10 08:29:00,
2013-03-10 00:35:00,50.0,40.9,30.27,SE,135,0.0,0.0,71,0.00,,,0.00,WUHU216HW,2013-03-10 08:35:00,
2013-03-10 00:40:00,49.8,40.8,30.27,SE,135,0.0,0.0,71,0.00,,,0.00,WUHU216HW,2013-03-10 08:40:00,
2013-03-10 00:45:00,49.8,40.8,30.27,SE,135,0.0,0.0,71,0.00,,,0.00,WUHU216HW,2013-03-10 08:45:00,
2013-03-10 00:50:00,49.8,41.1,30.27,SE,135,0.0,0.0,72,0.00,,,0.00,WUHU216HW,2013-03-10 08:50:00,
2013-03-10 00:55:00,49.6,40.9,30.27,SSE,158,0.0,0.0,72,0.00,,,0.00,WUHU216HW,2013-03-10 08:55:00,
2013-03-10 01:00:00,49.2,40.2,30.27,SSE,158,0.0,0.0,71,0.00,,,0.00,WUHU216HW,2013-03-10 09:00:00,
2013-03-10 01:05:00,49.1,40.0,30.27,SSE,158,0.0,0.0,71,0.00,,,0.00,WUHU216HW,2013-03-10 09:05:00,
2013-03-10 01:10:00,49.1,39.7,30.27,SSE,158,0.0,0.0,70,0.00,,,0.00,WUHU216HW,2013-03-10 09:10:00,
2013-03-10 01:15:00,48.9,39.5,30.27,SSE,158,0.0,0.0,70,0.00,,,0.00,WUHU216HW,2013-03-10 09:15:00,
2013-03-10 01:20:00,48.9,39.1,30.27,SSE,158,0.0,0.0,69,0.00,,,0.00,WUHU216HW,2013-03-10 09:20:00,
2013-03-10 01:25:00,48.9,39.1,30.28,SSE,158,0.0,0.0,69,0.00,,,0.00,WUHU216HW,2013-03-10 09:25:00,
2013-03-10 01:30:00,49.1,39.7,30.28,SSE,158,0.0,0.0,70,0.00,,,0.00,WUHU216HW,2013-03-10 09:30:00,
2013-03-10 01:35:00,48.9,39.5,30.28,SSE,158,0.0,0.0,70,0.00,,,0.00,WUHU216HW,2013-03-10 09:35:00,
2013-03-10 01:40:00,48.7,39.3,30.28,SSE,158,0.0,0.0,70,0.00,,,0.00,WUHU216HW,2013-03-10 09:40:00,
2013-03-10 01:46:00,48.7,39.7,30.28,SSE,158,0.0,0.0,71,0.00,,,0.00,WUHU216HW,2013-03-10 09:46:00,
2013-03-10 01:51:00,48.7,39.7,30.28,SSE,158,0.0,0.0,71,0.00,,,0.00,WUHU216HW,2013-03-10 09:51:00,
2013-03-10 01:56:00,48.5,39.8,30.28,SSE,158,0.0,0.0,72,0.00,,,0.00,WUHU216HW,2013-03-10 09:56:00,
2013-03-10 03:01:00,48.3,40.0,30.28,SSE,158,0.0,0.0,73,0.00,,,0.00,WUHU216HW,2013-03-10 10:01:00,
2013-03-10 03:06:00,48.2,39.8,30.28,SSE,158,0.0,0.0,73,0.00,,,0.00,WUHU216HW,2013-03-10 10:06:00,
2013-03-10 03:11:00,48.0,40.0,30.27,SSE,158,0.0,0.0,74,0.00,,,0.00,WUHU216HW,2013-03-10 10:11:00,
2013-03-10 03:16:00,48.0,40.3,30.27,SSE,158,0.0,0.0,75,0.00,,,0.00,WUHU216HW,2013-03-10 10:16:00,
2013-03-10 03:21:00,48.0,40.3,30.27,SSE,158,0.0,0.0,75,0.00,,,0.00,WUHU216HW,2013-03-10 10:21:00,
2013-03-10 03:26:00,48.0,40.3,30.27,SSE,158,0.0,0.0,75,0.00,,,0.00,WUHU216HW,2013-03-10 10:26:00,
2013-03-10 03:31:00,48.0,40.3,30.27,SSE,158,0.0,0.0,75,0.00,,,0.00,WUHU216HW,2013-03-10 10:31:00,
2013-03-10 03:36:00,47.8,40.2,30.27,SSE,158,0.0,0.0,75,0.00,,,0.00,WUHU216HW,2013-03-10 10:36:00,
2013-03-10 03:41:00,47.6,40.0,30.27,SSE,158,0.0,0.0,75,0.00,,,0.00,WUHU216HW,2013-03-10 10:41:00,
2013-03-10 03:46:00,47.4,39.9,30.27,SSE,158,0.0,0.0,75,0.00,,,0.00,WUHU216HW,2013-03-10 10:46:00,
2013-03-10 03:51:00,47.4,39.9,30.27,SSE,158,0.0,0.0,75,0.00,,,0.00,WUHU216HW,2013-03-10 10:51:00,
2013-03-10 03:57:00,47.4,39.9,30.26,SSE,158,0.0,0.0,75,0.00,,,0.00,WUHU216HW,2013-03-10 10:57:00,
2013-03-10 04:02:00,47.3,39.7,30.26,SSE,158,0.0,0.0,75,0.00,,,0.00,WUHU216HW,2013-03-10 11:02:00,
2013-03-10 04:07:00,47.3,39.7,30.26,SSE,158,0.0,0.0,75,0.00,,,0.00,WUHU216HW,2013-03-10 11:07:00,
2013-03-10 04:12:00,47.3,39.7,30.26,SSE,158,0.0,0.0,75,0.00,,,0.00,WUHU216HW,2013-03-10 11:12:00,
2013-03-10 04:17:00,47.3,39.3,30.27,SSE,158,0.0,0.0,74,0.00,,,0.00,WUHU216HW,2013-03-10 11:17:00,
2013-03-10 04:22:00,47.1,39.2,30.26,SSE,158,0.0,0.0,74,0.00,,,0.00,WUHU216HW,2013-03-10 11:22:00,
2013-03-10 04:27:00,47.1,39.2,30.26,SSE,158,0.0,0.0,74,0.00,,,0.00,WUHU216HW,2013-03-10 11:27:00,
2013-03-10 04:32:00,47.1,39.5,30.26,SSE,158,0.0,0.0,75,0.00,,,0.00,WUHU216HW,2013-03-10 11:32:00,
2013-03-10 04:37:00,46.9,39.4,30.27,SSE,158,0.0,0.0,75,0.00,,,0.00,WUHU216HW,2013-03-10 11:37:00,
2013-03-10 04:42:00,46.9,39.4,30.27,SSE,158,0.0,0.0,75,0.00,,,0.00,WUHU216HW,2013-03-10 11:42:00,
2013-03-10 04:48:00,46.9,39.7,30.27,SSE,158,0.0,0.0,76,0.00,,,0.00,WUHU216HW,2013-03-10 11:48:00,
2013-03-10 04:53:00,46.7,39.5,30.27,SSE,158,0.0,0.0,76,0.00,,,0.00,WUHU216HW,2013-03-10 11:53:00,
2013-03-10 04:58:00,46.5,39.4,30.27,SSE,158,0.0,0.0,76,0.00,,,0.00,WUHU216HW,2013-03-10 11:58:00,
2013-03-10 05:03:00,46.5,39.4,30.26,SSE,158,0.0,0.0,76,0.00,,,0.00,WUHU216HW,2013-03-10 12:03:00,
2013-03-10 05:08:00,46.5,39.7,30.26,SSE,158,0.0,0.0,77,0.00,,,0.00,WUHU216HW,2013-03-10 12:08:00,
2013-03-10 05:13:00,46.5,39.7,30.26,SSE,158,0.0,0.0,77,0.00,,,0.00,WUHU216HW,2013-03-10 12:13:00,
2013-03-10 05:18:00,46.5,39.7,30.26,SSE,158,0.0,0.0,77,0.00,,,0.00,WUHU216HW,2013-03-10 12:18:00,
2013-03-10 05:23:00,46.2,39.4,30.26,SSE,158,0.0,0.0,77,0.00,,,0.00,WUHU216HW,2013-03-10 12:23:00,
2013-03-10 05:28:00,46.2,39.4,30.26,SSE,158,0.0,0.0,77,0.00,,,0.00,WUHU216HW,2013-03-10 12:28:00,
2013-03-10 05:33:00,46.2,39.4,30.27,SSE,158,0.0,0.0,77,0.00,,,0.00,WUHU216HW,2013-03-10 12:33:00,
2013-03-10 05:38:00,46.2,39.4,30.27,SSE,158,0.0,0.0,77,0.00,,,0.00,WUHU216HW,2013-03-10 12:38:00,
2013-03-10 05:43:00,46.2,39.0,30.27,SSE,158,0.0,0.0,76,0.00,,,0.00,WUHU216HW,2013-03-10 12:43:00,
2013-03-10 05:49:00,46.2,39.0,30.27,SSE,158,0.0,0.0,76,0.00,,,0.00,WUHU216HW,2013-03-10 12:49:00,
2013-03-10 05:54:00,46.2,39.0,30.27,SSE,158,0.0,0.0,76,0.00,,,0.00,WUHU216HW,2013-03-10 12:54:00,
2013-03-10 05:59:00,46.0,38.9,30.27,SSE,158,0.0,0.0,76,0.00,,,0.00,WUHU216HW,2013-03-10 12:59:00,
2013-03-10 06:04:00,46.0,38.9,30.27,SSE,158,0.0,0.0,76,0.00,,,0.00,WUHU216HW,2013-03-10 13:04:00,
2013-03-10 06:09:00,45.6,38.5,30.27,SSE,158,0.0,0.0,76,0.00,,,0.00,WUHU216HW,2013-03-10 13:09:00,
2013-03-10 06:14:00,45.6,38.5,30.27,SSE,158,0.0,0.0,76,0.00,,,0.00,WUHU216HW,2013-03-10 13:14:00,
2013-03-10 06:19:00,45.8,39.4,30.28,SSE,158,0.0,0.0,78,0.00,,,0.00,WUHU216HW,2013-03-10 13:19:00,
2013-03-10 06:24:00,46.0,39.5,30.28,SSE,158,0.0,0.0,78,0.00,,,0.00,WUHU216HW,2013-03-10 13:24:00,
2013-03-10 06:29:00,46.0,39.5,30.28,SSE,158,0.0,0.0,78,0.00,,,0.00,WUHU216HW,2013-03-10 13:29:00,
2013-03-10 06:34:00,45.8,39.4,30.29,SSE,158,0.0,0.0,78,0.00,,,0.00,WUHU216HW,2013-03-10 13:34:00,
2013-03-10 06:39:00,45.8,39.7,30.28,SSE,158,0.0,0.0,79,0.00,,,0.00,WUHU216HW,2013-03-10 13:39:00,
2013-03-10 06:45:00,45.8,39.7,30.28,East,90,2.0,2.0,79,0.00,,,0.00,WUHU216HW,2013-03-10 13:45:00,
2013-03-10 06:50:00,46.0,40.2,30.28,ESE,113,0.0,2.0,80,0.00,,,0.00,WUHU216HW,2013-03-10 13:50:00,
2013-03-10 06:55:00,46.0,40.2,30.27,ESE,113,0.0,2.0,80,0.00,,,0.00,WUHU216HW,2013-03-10 13:55:00,
2013-03-10 07:00:00,46.0,40.5,30.27,ESE,113,0.0,0.0,81,0.00,,,0.00,WUHU216HW,2013-03-10 14:00:00,
2013-03-10 07:05:00,46.0,40.5,30.28,ESE,113,0.0,0.0,81,0.00,,,0.00,WUHU216HW,2013-03-10 14:05:00,
2013-03-10 07:10:00,46.0,40.5,30.28,ESE,113,0.0,0.0,81,0.00,,,0.00,WUHU216HW,2013-03-10 14:10:00,
2013-03-10 07:15:00,45.8,40.1,30.27,ESE,113,0.0,0.0,80,0.00,,,0.00,WUHU216HW,2013-03-10 14:15:00,
2013-03-10 07:20:00,45.6,39.9,30.28,ESE,113,0.0,0.0,80,0.00,,,0.00,WUHU216HW,2013-03-10 14:20:00,
2013-03-10 07:25:00,45.6,39.9,30.28,ESE,113,0.0,0.0,80,0.00,,,0.00,WUHU216HW,2013-03-10 14:25:00,
2013-03-10 07:30:00,45.6,39.9,30.28,ESE,113,0.0,0.0,80,0.00,,,0.00,WUHU216HW,2013-03-10 14:30:00,
2013-03-10 07:35:00,45.5,39.7,30.29,ESE,113,0.0,0.0,80,0.00,,,0.00,WUHU216HW,2013-03-10 14:35:00,
2013-03-10 07:40:00,45.3,39.5,30.29,ESE,113,0.0,0.0,80,0.00,,,0.00,WUHU216HW,2013-03-10 14:40:00,
2013-03-10 07:45:00,45.3,39.5,30.28,ESE,113,0.0,0.0,80,0.00,,,0.00,WUHU216HW,2013-03-10 14:45:00,
2013-03-10 07:51:00,45.3,39.5,30.29,ESE,113,0.0,0.0,80,0.00,,,0.00,WUHU216HW,2013-03-10 14:51:00,
2013-03-10 07:56:00,45.3,39.5,30.29,ESE,113,0.0,0.0,80,0.00,,,0.00,WUHU216HW,2013-03-10 14:56:00,
2013-03-10 08:01:00,45.3,39.5,30.30,ESE,113,0.0,0.0,80,0.00,,,0.00,WUHU216HW,2013-03-10 15:01:00,
2013-03-10 08:06:00,45.5,39.7,30.30,ESE,113,0.0,0.0,80,0.00,,,0.00,WUHU216HW,2013-03-10 15:06:00,
2013-03-10 08:11:00,45.5,39.7,30.30,ESE,113,0.0,0.0,80,0.00,,,0.00,WUHU216HW,2013-03-10 15:11:00,
2013-03-10 08:16:00,45.5,39.7,30.31,ESE,113,0.0,0.0,80,0.00,,,0.00,WUHU216HW,2013-03-10 15:16:00,
2013-03-10 08:21:00,45.6,39.9,30.30,ESE,113,0.0,0.0,80,0.00,,,0.00,WUHU216HW,2013-03-10 15:21:00,
2013-03-10 08:26:00,46.0,40.5,30.31,ESE,113,0.0,0.0,81,0.00,,,0.00,WUHU216HW,2013-03-10 15:26:00,
2013-03-10 08:31:00,46.0,40.5,30.31,ESE,113,0.0,0.0,81,0.00,,,0.00,WUHU216HW,2013-03-10 15:31:00,
2013-03-10 08:36:00,46.2,40.7,30.31,ESE,113,0.0,0.0,81,0.00,,,0.00,WUHU216HW,2013-03-10 15:36:00,
2013-03-10 08:41:00,46.5,40.9,30.31,ESE,113,0.0,0.0,81,0.00,,,0.00,WUHU216HW,2013-03-10 15:41:00,
2013-03-10 08:46:00,46.7,41.5,30.31,ESE,113,0.0,0.0,82,0.00,,,0.00,WUHU216HW,2013-03-10 15:46:00,
2013-03-10 08:51:00,46.9,41.7,30.32,ESE,113,0.0,0.0,82,0.00,,,0.00,WUHU216HW,2013-03-10 15:51:00,
2013-03-10 08:56:00,47.1,42.0,30.32,ESE,113,0.0,0.0,82,0.00,,,0.00,WUHU216HW,2013-03-10 15:56:00,
2013-03-10 09:02:00,47.4,42.2,30.32,ESE,113,0.0,0.0,82,0.00,,,0.00,WUHU216HW,2013-03-10 16:02:00,
2013-03-10 09:07:00,47.6,42.4,30.32,ESE,113,0.0,0.0,82,0.00,,,0.00,WUHU216HW,2013-03-10 16:07:00,
2013-03-10 09:12:00,48.0,42.7,30.32,ESE,113,0.0,0.0,82,0.00,,,0.00,WUHU216HW,2013-03-10 16:12:00,
2013-03-10 09:17:00,48.3,43.0,30.32,ESE,113,0.0,0.0,82,0.00,,,0.00,WUHU216HW,2013-03-10 16:17:00,
2013-03-10 09:22:00,48.7,43.4,30.32,ESE,113,0.0,0.0,82,0.00,,,0.00,WUHU216HW,2013-03-10 16:22:00,
2013-03-10 09:27:00,48.9,43.7,30.32,SSW,203,0.0,0.0,82,0.00,,,0.00,WUHU216HW,2013-03-10 16:27:00,
2013-03-10 09:32:00,49.2,43.9,30.32,SSW,203,0.0,0.0,82,0.00,,,0.00,WUHU216HW,2013-03-10 16:32:00,
2013-03-10 09:37:00,49.6,44.3,30.32,SSW,203,0.0,0.6,82,0.00,,,0.00,WUHU216HW,2013-03-10 16:37:00,
2013-03-10 09:42:00,49.8,44.4,30.32,South,180,0.0,0.6,82,0.00,,,0.00,WUHU216HW,2013-03-10 16:42:00,
2013-03-10 09:47:00,50.1,44.8,30.31,SSE,158,0.0,0.0,82,0.00,,,0.00,WUHU216HW,2013-03-10 16:47:00,
2013-03-10 09:52:00,50.7,45.3,30.32,SSE,158,0.0,0.0,82,0.00,,,0.00,WUHU216HW,2013-03-10 16:52:00,
2013-03-10 09:57:00,51.0,45.7,30.32,SSW,203,0.0,0.0,82,0.00,,,0.00,WUHU216HW,2013-03-10 16:57:00,
2013-03-10 10:02:00,51.0,45.4,30.31,SSW,203,0.0,0.0,81,0.00,,,0.00,WUHU216HW,2013-03-10 17:02:00,
2013-03-10 10:07:00,51.6,45.9,30.31,SSW,203,0.0,2.0,81,0.00,,,0.00,WUHU216HW,2013-03-10 17:07:00,
2013-03-10 10:13:00,51.9,46.0,30.32,SW,225,0.0,2.2,80,0.00,,,0.00,WUHU216HW,2013-03-10 17:13:00,
2013-03-10 10:18:00,52.3,46.4,30.31,SSW,203,0.0,2.2,80,0.00,,,0.00,WUHU216HW,2013-03-10 17:18:00,
2013-03-10 10:23:00,52.8,46.5,30.32,SSW,203,2.6,2.6,79,0.00,,,0.00,WUHU216HW,2013-03-10 17:23:00,
2013-03-10 10:28:00,53.4,46.7,30.31,SW,225,2.6,2.6,78,0.00,,,0.00,WUHU216HW,2013-03-10 17:28:00,
2013-03-10 10:33:00,53.6,46.9,30.31,SW,225,0.0,2.6,78,0.00,,,0.00,WUHU216HW,2013-03-10 17:33:00,
2013-03-10 10:38:00,53.9,47.2,30.31,SW,225,1.1,1.1,78,0.00,,,0.00,WUHU216HW,2013-03-10 17:38:00,
2013-03-10 10:43:00,53.9,46.9,30.31,SSW,203,4.0,4.0,77,0.00,,,0.00,WUHU216HW,2013-03-10 17:43:00,
2013-03-10 10:48:00,54.1,47.0,30.31,SSW,203,3.3,4.0,77,0.00,,,0.00,WUHU216HW,2013-03-10 17:48:00,
2013-03-10 10:53:00,54.3,47.2,30.31,SW,225,0.0,3.3,77,0.00,,,0.00,WUHU216HW,2013-03-10 17:53:00,
2013-03-10 10:58:00,54.6,47.5,30.31,SW,225,1.1,1.1,77,0.00,,,0.00,WUHU216HW,2013-03-10 17:58:00,
2013-03-10 11:03:00,54.8,47.3,30.31,SW,225,0.0,1.1,76,0.00,,,0.00,WUHU216HW,2013-03-10 18:03:00,
2013-03-10 11:08:00,55.2,47.7,30.31,SSE,158,0.0,0.0,76,0.00,,,0.00,WUHU216HW,2013-03-10 18:08:00,
2013-03-10 11:13:00,55.2,47.7,30.31,SW,225,0.0,0.4,76,0.00,,,0.00,WUHU216HW,2013-03-10 18:13:00,
2013-03-10 11:18:00,55.9,48.0,30.31,SE,135,2.6,3.8,75,0.00,,,0.00,WUHU216HW,2013-03-10 18:18:00,
2013-03-10 11:23:00,56.1,48.2,30.31,SSW,203,0.0,3.8,75,0.00,,,0.00,WUHU216HW,2013-03-10 18:23:00,
2013-03-10 11:29:00,56.4,48.3,30.31,SW,225,1.1,2.6,74,0.00,,,0.00,WUHU216HW,2013-03-10 18:29:00,
2013-03-10 11:34:00,57.0,48.7,30.31,SSE,158,0.0,1.1,74,0.00,,,0.00,WUHU216HW,2013-03-10 18:34:00,
2013-03-10 11:39:00,57.2,48.5,30.31,South,180,0.0,1.1,73,0.00,,,0.00,WUHU216HW,2013-03-10 18:39:00,
2013-03-10 11:44:00,57.5,48.9,30.31,SSW,203,3.8,3.8,72,0.00,,,0.00,WUHU216HW,2013-03-10 18:44:00,
2013-03-10 11:49:00,58.2,49.2,30.31,South,180,0.8,3.8,72,0.00,,,0.00,WUHU216HW,2013-03-10 18:49:00,
2013-03-10 11:54:00,58.6,49.2,30.30,SW,225,2.2,3.8,71,0.00,,,0.00,WUHU216HW,2013-03-10 18:54:00,
2013-03-10 11:59:00,58.8,49.1,30.30,SW,225,0.0,2.9,70,0.00,,,0.00,WUHU216HW,2013-03-10 18:59:00,
2013-03-10 12:04:00,58.8,48.6,30.30,SW,225,2.0,2.9,69,0.00,,,0.00,WUHU216HW,2013-03-10 19:04:00,
2013-03-10 12:09:00,59.1,49.0,30.31,SW,225,1.7,2.0,69,0.00,,,0.00,WUHU216HW,2013-03-10 19:09:00,
2013-03-10 12:14:00,59.3,49.2,30.31,West,270,0.0,2.0,69,0.00,,,0.00,WUHU216HW,2013-03-10 19:14:00,
2013-03-10 12:19:00,59.5,48.9,30.30,SE,135,3.8,3.8,68,0.00,,,0.00,WUHU216HW,2013-03-10 19:19:00,
2013-03-10 12:24:00,59.9,48.9,30.30,NW,315,0.0,3.8,67,0.00,,,0.00,WUHU216HW,2013-03-10 19:24:00,
2013-03-10 12:29:00,60.0,49.1,30.30,SSW,203,0.0,4.2,67,0.00,,,0.00,WUHU216HW,2013-03-10 19:29:00,
2013-03-10 12:34:00,60.4,49.0,30.30,SW,225,2.2,4.2,66,0.00,,,0.00,WUHU216HW,2013-03-10 19:34:00,
2013-03-10 12:39:00,60.6,48.8,30.30,WNW,293,0.0,3.5,65,0.00,,,0.00,WUHU216HW,2013-03-10 19:39:00,
2013-03-10 12:45:00,60.9,48.7,30.29,WNW,293,0.0,3.5,64,0.00,,,0.00,WUHU216HW,2013-03-10 19:45:00,
2013-03-10 12:50:00,61.1,48.9,30.29,SW,225,4.6,6.4,64,0.00,,,0.00,WUHU216HW,2013-03-10 19:50:00,
2013-03-10 12:55:00,61.5,49.2,30.29,South,180,2.9,6.4,64,0.00,,,0.00,WUHU216HW,2013-03-10 19:55:00,
2013-03-10 13:00:00,61.8,48.7,30.29,SSW,203,0.0,5.5,62,0.00,,,0.00,WUHU216HW,2013-03-10 20:00:00,
2013-03-10 13:05:00,61.8,48.7,30.29,ESE,113,2.9,5.5,62,0.00,,,0.00,WUHU216HW,2013-03-10 20:05:00,
2013-03-10 13:10:00,62.2,48.6,30.29,SSW,203,5.1,5.1,61,0.00,,,0.00,WUHU216HW,2013-03-10 20:10:00,
2013-03-10 13:15:00,62.4,48.3,30.29,SW,225,0.0,5.1,60,0.00,,,0.00,WUHU216HW,2013-03-10 20:15:00,
2013-03-10 13:20:00,62.4,47.9,30.29,SSW,203,3.8,3.8,59,0.00,,,0.00,WUHU216HW,2013-03-10 20:20:00,
2013-03-10 13:25:00,62.6,47.5,30.29,SE,135,0.0,3.8,58,0.00,,,0.00,WUHU216HW,2013-03-10 20:25:00,
2013-03-10 13:30:00,62.7,47.2,30.29,South,180,3.3,3.8,57,0.00,,,0.00,WUHU216HW,2013-03-10 20:30:00,
2013-03-10 13:35:00,63.1,47.1,30.29,SW,225,0.0,3.3,56,0.00,,,0.00,WUHU216HW,2013-03-10 20:35:00,
2013-03-10 13:40:00,63.3,47.2,30.29,West,270,0.0,2.6,56,0.00,,,0.00,WUHU216HW,2013-03-10 20:40:00,
2013-03-10 13:46:00,63.5,47.4,30.28,SW,225,2.0,2.0,56,0.00,,,0.00,WUHU216HW,2013-03-10 20:46:00,
2013-03-10 13:51:00,63.5,46.4,30.28,SW,225,5.3,5.3,54,0.00,,,0.00,WUHU216HW,2013-03-10 20:51:00,
2013-03-10 13:56:00,63.6,46.6,30.28,SSE,158,2.9,5.3,54,0.00,,,0.00,WUHU216HW,2013-03-10 20:56:00,
2013-03-10 14:01:00,64.0,46.9,30.28,SSW,203,5.5,5.5,54,0.00,,,0.00,WUHU216HW,2013-03-10 21:01:00,
2013-03-10 14:07:00,64.2,46.6,30.27,WSW,248,0.0,6.7,53,0.00,,,0.00,WUHU216HW,2013-03-10 21:07:00,
2013-03-10 14:12:00,64.2,46.6,30.27,SW,225,0.0,6.7,53,0.00,,,0.00,WUHU216HW,2013-03-10 21:12:00,
2013-03-10 14:17:00,64.2,46.6,30.27,WSW,248,0.8,3.1,53,0.00,,,0.00,WUHU216HW,2013-03-10 21:17:00,
2013-03-10 14:22:00,64.5,46.9,30.27,SSW,203,2.2,6.0,53,0.00,,,0.00,WUHU216HW,2013-03-10 21:22:00,
2013-03-10 14:27:00,64.9,47.3,30.27,WNW,293,0.0,6.0,53,0.00,,,0.00,WUHU216HW,2013-03-10 21:27:00,
2013-03-10 14:32:00,65.1,47.0,30.27,SSW,203,0.0,5.1,52,0.00,,,0.00,WUHU216HW,2013-03-10 21:32:00,
2013-03-10 14:37:00,65.4,47.3,30.27,South,180,2.9,3.5,52,0.00,,,0.00,WUHU216HW,2013-03-10 21:37:00,
2013-03-10 14:42:00,65.8,47.2,30.27,SSW,203,4.2,4.2,51,0.00,,,0.00,WUHU216HW,2013-03-10 21:42:00,
2013-03-10 14:47:00,65.8,46.7,30.27,SSE,158,1.7,4.2,50,0.00,,,0.00,WUHU216HW,2013-03-10 21:47:00,
2013-03-10 14:52:00,65.8,47.2,30.27,WSW,248,0.0,4.2,51,0.00,,,0.00,WUHU216HW,2013-03-10 21:52:00,
2013-03-10 14:57:00,66.0,46.9,30.27,SW,225,4.6,4.6,50,0.00,,,0.00,WUHU216HW,2013-03-10 21:57:00,
2013-03-10 15:02:00,66.2,46.5,30.27,SSE,158,0.8,4.6,49,0.00,,,0.00,WUHU216HW,2013-03-10 22:02:00,
2013-03-10 15:07:00,66.3,46.6,30.27,SSE,158,5.5,5.5,49,0.00,,,0.00,WUHU216HW,2013-03-10 22:07:00,
2013-03-10 15:13:00,66.5,46.8,30.26,SW,225,6.4,6.4,49,0.00,,,0.00,WUHU216HW,2013-03-10 22:13:00,
2013-03-10 15:18:00,66.7,47.0,30.26,South,180,0.6,6.4,49,0.00,,,0.00,WUHU216HW,2013-03-10 22:18:00,
2013-03-10 15:23:00,66.7,47.0,30.27,South,180,1.3,4.2,49,0.00,,,0.00,WUHU216HW,2013-03-10 22:23:00,
2013-03-10 15:28:00,66.5,46.2,30.27,SSW,203,0.0,4.2,48,0.00,,,0.00,WUHU216HW,2013-03-10 22:28:00,
2013-03-10 15:33:00,66.3,46.0,30.27,WSW,248,1.5,1.5,48,0.00,,,0.00,WUHU216HW,2013-03-10 22:33:00,
2013-03-10 15:38:00,66.3,46.0,30.26,SSE,158,3.5,3.5,48,0.00,,,0.00,WUHU216HW,2013-03-10 22:38:00,
2013-03-10 15:43:00,66.2,46.5,30.26,SE,135,0.0,3.5,49,0.00,,,0.00,WUHU216HW,2013-03-10 22:43:00,
2013-03-10 15:48:00,66.0,46.3,30.26,SSW,203,3.8,4.2,50,0.00,,,0.00,WUHU216HW,2013-03-10 22:48:00,
2013-03-10 15:53:00,66.0,47.4,30.26,SW,225,4.4,6.7,51,0.00,,,0.00,WUHU216HW,2013-03-10 22:53:00,
2013-03-10 15:58:00,66.2,47.1,30.27,SSW,203,5.1,6.7,50,0.00,,,0.00,WUHU216HW,2013-03-10 22:58:00,
2013-03-10 16:03:00,66.2,47.1,30.26,SW,225,2.4,5.1,50,0.00,,,0.00,WUHU216HW,2013-03-10 23:03:00,
2013-03-10 16:08:00,66.0,46.3,30.26,SW,225,0.0,3.5,49,0.00,,,0.00,WUHU216HW,2013-03-10 23:08:00,
2013-03-10 16:13:00,66.0,45.7,30.26,SE,135,2.6,3.5,48,0.00,,,0.00,WUHU216HW,2013-03-10 23:13:00,
2013-03-10 16:18:00,66.0,45.7,30.26,SE,135,2.0,5.1,48,0.00,,,0.00,WUHU216HW,2013-03-10 23:18:00,
2013-03-10 16:23:00,66.0,45.7,30.26,SE,135,1.3,5.1,48,0.00,,,0.00,WUHU216HW,2013-03-10 23:23:00,
2013-03-10 16:28:00,66.3,45.5,30.26,SE,135,0.8,2.4,47,0.00,,,0.00,WUHU216HW,2013-03-10 23:28:00,
2013-03-10 16:34:00,66.3,45.5,30.26,SSW,203,4.0,4.0,47,0.00,,,0.00,WUHU216HW,2013-03-10 23:34:00,
2013-03-10 16:39:00,66.5,46.2,30.26,SSW,203,6.4,6.4,48,0.00,,,0.00,WUHU216HW,2013-03-10 23:39:00,
2013-03-10 16:44:00,66.3,46.0,30.26,WSW,248,5.3,6.4,48,0.00,,,0.00,WUHU216HW,2013-03-10 23:44:00,
2013-03-10 16:49:00,66.0,46.3,30.26,WSW,248,6.9,6.9,49,0.00,,,0.00,WUHU216HW,2013-03-10 23:49:00,
2013-03-10 16:54:00,65.8,46.1,30.25,SW,225,3.5,6.9,49,0.00,,,0.00,WUHU216HW,2013-03-10 23:54:00,
2013-03-10 16:59:00,64.9,46.3,30.26,SW,225,8.7,8.7,51,0.00,,,0.00,WUHU216HW,2013-03-10 23:59:00,
2013-03-10 17:04:00,64.5,46.4,30.25,SW,225,6.0,8.7,52,0.00,,,0.00,WUHU216HW,2013-03-11 00:04:00,
2013-03-10 17:09:00,64.5,46.4,30.25,SW,225,5.3,8.7,52,0.00,,,0.00,WUHU216HW,2013-03-11 00:09:00,
2013-03-10 17:14:00,64.2,46.6,30.25,SE,135,5.5,6.0,53,0.00,,,0.00,WUHU216HW,2013-03-11 00:14:00,
2013-03-10 17:19:00,63.6,46.1,30.25,SW,225,6.7,6.7,53,0.00,,,0.00,WUHU216HW,2013-03-11 00:19:00,
2013-03-10 17:24:00,63.1,46.1,30.24,SSE,158,3.5,6.7,54,0.00,,,0.00,WUHU216HW,2013-03-11 00:24:00,
2013-03-10 17:29:00,63.1,46.1,30.24,SE,135,5.1,5.3,54,0.00,,,0.00,WUHU216HW,2013-03-11 00:29:00,
2013-03-10 17:34:00,63.1,46.1,30.24,South,180,5.5,5.5,54,0.00,,,0.00,WUHU216HW,2013-03-11 00:34:00,
2013-03-10 17:39:00,63.1,45.6,30.24,SW,225,5.5,5.5,53,0.00,,,0.00,WUHU216HW,2013-03-11 00:39:00,
2013-03-10 17:45:00,62.6,44.6,30.24,SSE,158,5.1,5.5,52,0.00,,,0.00,WUHU216HW,2013-03-11 00:45:00,
2013-03-10 17:50:00,62.4,44.5,30.24,South,180,4.6,5.5,52,0.00,,,0.00,WUHU216HW,2013-03-11 00:50:00,
2013-03-10 17:55:00,62.2,43.8,30.24,SSW,203,0.0,4.6,51,0.00,,,0.00,WUHU216HW,2013-03-11 00:55:00,
2013-03-10 18:00:00,61.8,43.5,30.24,SE,135,3.3,4.4,51,0.00,,,0.00,WUHU216HW,2013-03-11 01:00:00,
2013-03-10 18:05:00,61.7,43.3,30.24,SW,225,3.3,3.3,51,0.00,,,0.00,WUHU216HW,2013-03-11 01:05:00,
2013-03-10 18:10:00,61.3,42.5,30.24,SSE,158,5.5,5.5,50,0.00,,,0.00,WUHU216HW,2013-03-11 01:10:00,
2013-03-10 18:15:00,61.1,42.4,30.24,SE,135,7.3,7.3,50,0.00,,,0.00,WUHU216HW,2013-03-11 01:15:00,
2013-03-10 18:20:00,60.9,42.2,30.24,SSE,158,5.1,7.3,50,0.00,,,0.00,WUHU216HW,2013-03-11 01:20:00,
2013-03-10 18:25:00,60.6,41.9,30.24,SSE,158,2.9,5.1,50,0.00,,,0.00,WUHU216HW,2013-03-11 01:25:00,
2013-03-10 18:30:00,60.6,42.3,30.24,SE,135,2.9,2.9,51,0.00,,,0.00,WUHU216HW,2013-03-11 01:30:00,
2013-03-10 18:35:00,60.4,42.7,30.24,SSW,203,0.0,2.9,52,0.00,,,0.00,WUHU216HW,2013-03-11 01:35:00,
2013-03-10 18:40:00,60.0,43.3,30.25,SSW,203,5.3,5.3,54,0.00,,,0.00,WUHU216HW,2013-03-11 01:40:00,
2013-03-10 18:45:00,59.5,43.7,30.25,SE,135,4.0,6.7,56,0.00,,,0.00,WUHU216HW,2013-03-11 01:45:00,
2013-03-10 18:50:00,58.8,44.0,30.25,SSE,158,6.0,6.7,58,0.00,,,0.00,WUHU216HW,2013-03-11 01:50:00,
2013-03-10 18:55:00,58.1,44.3,30.25,SE,135,2.6,6.0,60,0.00,,,0.00,WUHU216HW,2013-03-11 01:55:00,
2013-03-10 19:00:00,57.7,44.7,30.25,South,180,1.3,5.5,62,0.00,,,0.00,WUHU216HW,2013-03-11 02:00:00,
2013-03-10 19:05:00,56.8,44.5,30.24,South,180,3.8,5.1,63,0.00,,,0.00,WUHU216HW,2013-03-11 02:05:00,
2013-03-10 19:10:00,56.3,44.6,30.25,SW,225,4.0,4.6,65,0.00,,,0.00,WUHU216HW,2013-03-11 02:10:00,
2013-03-10 19:15:00,55.5,44.3,30.26,ESE,113,2.2,6.7,66,0.00,,,0.00,WUHU216HW,2013-03-11 02:15:00,
2013-03-10 19:20:00,55.2,44.4,30.26,SSE,158,4.6,6.7,67,0.00,,,0.00,WUHU216HW,2013-03-11 02:20:00,
2013-03-10 19:26:00,55.2,44.8,30.26,SSE,158,0.8,4.6,68,0.00,,,0.00,WUHU216HW,2013-03-11 02:26:00,
2013-03-10 19:31:00,54.8,44.4,30.26,SSE,158,2.4,4.6,68,0.00,,,0.00,WUHU216HW,2013-03-11 02:31:00,
2013-03-10 19:36:00,54.6,44.7,30.26,ESE,113,4.6,4.6,69,0.00,,,0.00,WUHU216HW,2013-03-11 02:36:00,
2013-03-10 19:41:00,54.6,44.7,30.26,SSE,158,4.2,4.6,69,0.00,,,0.00,WUHU216HW,2013-03-11 02:41:00,
2013-03-10 19:46:00,54.5,44.5,30.26,ESE,113,4.4,4.6,69,0.00,,,0.00,WUHU216HW,2013-03-11 02:46:00,
2013-03-10 19:51:00,54.3,44.3,30.26,SSE,158,0.8,4.4,69,0.00,,,0.00,WUHU216HW,2013-03-11 02:51:00,
2013-03-10 19:56:00,54.1,44.6,30.26,SSE,158,0.0,4.4,70,0.00,,,0.00,WUHU216HW,2013-03-11 02:56:00,
2013-03-10 20:01:00,53.7,44.2,30.26,SSE,158,2.9,5.8,70,0.00,,,0.00,WUHU216HW,2013-03-11 03:01:00,
2013-03-10 20:06:00,53.6,44.4,30.26,SSE,158,0.0,5.8,71,0.00,,,0.00,WUHU216HW,2013-03-11 03:06:00,
2013-03-10 20:11:00,53.4,44.2,30.26,ESE,113,0.0,2.9,71,0.00,,,0.00,WUHU216HW,2013-03-11 03:11:00,
2013-03-10 20:16:00,53.7,44.5,30.26,SE,135,0.0,0.0,71,0.00,,,0.00,WUHU216HW,2013-03-11 03:16:00,
2013-03-10 20:21:00,53.7,44.5,30.26,SSE,158,0.6,0.6,71,0.00,,,0.00,WUHU216HW,2013-03-11 03:21:00,
2013-03-10 20:26:00,53.7,44.2,30.26,SSE,158,0.0,1.7,70,0.00,,,0.00,WUHU216HW,2013-03-11 03:26:00,
2013-03-10 20:32:00,53.7,44.2,30.25,SE,135,0.4,1.7,70,0.00,,,0.00,WUHU216HW,2013-03-11 03:32:00,
2013-03-10 20:37:00,53.4,43.8,30.25,ESE,113,0.0,0.4,70,0.00,,,0.00,WUHU216HW,2013-03-11 03:37:00,
2013-03-10 20:42:00,53.4,43.4,30.25,South,180,0.0,0.0,69,0.00,,,0.00,WUHU216HW,2013-03-11 03:42:00,
2013-03-10 20:47:00,53.4,43.4,30.25,SSE,158,0.6,0.6,69,0.00,,,0.00,WUHU216HW,2013-03-11 03:47:00,
2013-03-10 20:52:00,53.6,43.6,30.25,SSE,158,0.0,0.6,69,0.00,,,0.00,WUHU216HW,2013-03-11 03:52:00,
2013-03-10 20:57:00,53.4,43.4,30.25,SE,135,0.0,1.7,69,0.00,,,0.00,WUHU216HW,2013-03-11 03:57:00,
2013-03-10 21:00:00,53.4,43.4,30.25,SE,135,0.0,1.7,69,0.00,,,0.00,WUHU216HW,2013-03-11 04:00:00,
2013-03-10 21:01:00,53.4,43.4,30.24,SE,135,1.5,1.7,69,0.00,,,0.00,WUHU216HW,2013-03-11 04:01:00,
2013-03-10 21:06:00,53.2,43.3,30.24,ESE,113,2.4,2.4,69,0.00,,,0.00,WUHU216HW,2013-03-11 04:06:00,
2013-03-10 21:11:00,52.8,42.9,30.25,SSE,158,1.1,2.4,69,0.00,,,0.00,WUHU216HW,2013-03-11 04:11:00,
2013-03-10 21:17:00,52.8,43.4,30.25,SSE,158,1.7,2.4,70,0.00,,,0.00,WUHU216HW,2013-03-11 04:17:00,
2013-03-10 21:22:00,52.7,43.2,30.25,South,180,0.0,2.6,70,0.00,,,0.00,WUHU216HW,2013-03-11 04:22:00,
2013-03-10 21:27:00,52.3,42.9,30.25,SE,135,2.2,3.1,70,0.00,,,0.00,WUHU216HW,2013-03-11 04:27:00,
2013-03-10 21:32:00,52.3,42.9,30.25,SSE,158,0.4,3.1,70,0.00,,,0.00,WUHU216HW,2013-03-11 04:32:00,
2013-03-10 21:37:00,52.1,43.1,30.25,SSE,158,1.3,2.2,71,0.00,,,0.00,WUHU216HW,2013-03-11 04:37:00,
2013-03-10 21:42:00,52.1,43.1,30.26,ESE,113,1.5,2.4,71,0.00,,,0.00,WUHU216HW,2013-03-11 04:42:00,
2013-03-10 21:47:00,51.9,42.9,30.26,SSE,158,0.6,2.4,71,0.00,,,0.00,WUHU216HW,2013-03-11 04:47:00,
2013-03-10 21:52:00,51.9,43.2,30.26,ESE,113,1.7,2.0,72,0.00,,,0.00,WUHU216HW,2013-03-11 04:52:00,
2013-03-10 21:57:00,51.6,42.9,30.26,SE,135,1.1,2.0,72,0.00,,,0.00,WUHU216HW,2013-03-11 04:57:00,
2013-03-10 22:02:00,51.6,42.9,30.26,SE,135,2.9,2.9,72,0.00,,,0.00,WUHU216HW,2013-03-11 05:02:00,
2013-03-10 22:07:00,51.6,42.9,30.25,SSE,158,0.0,2.9,72,0.00,,,0.00,WUHU216HW,2013-03-11 05:07:00,
2013-03-10 22:12:00,51.4,42.7,30.25,SSE,158,1.1,1.7,72,0.00,,,0.00,WUHU216HW,2013-03-11 05:12:00,
2013-03-10 22:17:00,51.4,42.7,30.25,SE,135,0.4,1.5,72,0.00,,,0.00,WUHU216HW,2013-03-11 05:17:00,
2013-03-10 22:22:00,51.4,42.7,30.25,SSE,158,1.1,1.3,72,0.00,,,0.00,WUHU216HW,2013-03-11 05:22:00,
2013-03-10 22:27:00,51.2,42.5,30.25,SSE,158,1.3,1.3,72,0.00,,,0.00,WUHU216HW,2013-03-11 05:27:00,
2013-03-10 22:32:00,51.0,42.4,30.25,SSE,158,2.6,2.6,72,0.00,,,0.00,WUHU216HW,2013-03-11 05:32:00,
2013-03-10 22:37:00,50.9,42.2,30.25,SE,135,1.3,2.6,72,0.00,,,0.00,WUHU216HW,2013-03-11 05:37:00,
2013-03-10 22:42:00,50.7,42.0,30.25,SE,135,1.3,2.2,72,0.00,,,0.00,WUHU216HW,2013-03-11 05:42:00,
2013-03-10 22:47:00,50.5,42.2,30.25,SE,135,0.6,2.2,73,0.00,,,0.00,WUHU216HW,2013-03-11 05:47:00,
2013-03-10 22:53:00,50.5,42.2,30.25,SSE,158,0.6,2.2,73,0.00,,,0.00,WUHU216HW,2013-03-11 05:53:00,
2013-03-10 22:58:00,50.3,42.3,30.25,SE,135,0.0,1.1,74,0.00,,,0.00,WUHU216HW,2013-03-11 05:58:00,
2013-03-10 23:03:00,50.3,42.3,30.26,SSE,158,0.8,0.8,74,0.00,,,0.00,WUHU216HW,2013-03-11 06:03:00,
2013-03-10 23:08:00,50.3,42.3,30.26,SSE,158,1.3,1.3,74,0.00,,,0.00,WUHU216HW,2013-03-11 06:08:00,
2013-03-10 23:13:00,50.1,42.5,30.25,SE,135,1.7,1.7,75,0.00,,,0.00,WUHU216HW,2013-03-11 06:13:00,
2013-03-10 23:18:00,50.1,42.8,30.25,ESE,113,3.1,5.8,76,0.00,,,0.00,WUHU216HW,2013-03-11 06:18:00,
2013-03-10 23:23:00,49.8,42.5,30.25,SE,135,1.7,5.8,76,0.00,,,0.00,WUHU216HW,2013-03-11 06:23:00,
2013-03-10 23:28:00,49.8,42.5,30.25,SSE,158,1.5,3.5,76,0.00,,,0.00,WUHU216HW,2013-03-11 06:28:00,
2013-03-10 23:33:00,49.8,42.8,30.25,SE,135,2.4,2.4,77,0.00,,,0.00,WUHU216HW,2013-03-11 06:33:00,
2013-03-10 23:38:00,49.6,42.6,30.25,SSE,158,2.9,2.9,77,0.00,,,0.00,WUHU216HW,2013-03-11 06:38:00,
2013-03-10 23:43:00,49.6,43.0,30.24,SE,135,3.5,3.5,78,0.00,,,0.00,WUHU216HW,2013-03-11 06:43:00,
2013-03-10 23:48:00,49.4,42.8,30.24,SE,135,1.7,4.2,78,0.00,,,0.00,WUHU216HW,2013-03-11 06:48:00,
2013-03-10 23:53:00,49.2,42.6,30.24,SE,135,2.0,4.2,78,0.00,,,0.00,WUHU216HW,2013-03-11 06:53:00,
2013-03-10 23:59:00,49.2,42.9,30.24,ESE,113,0.0,4.2,79,0.00,,,0.00,WUHU216HW,2013-03-11 06:59:00,